Wetterdaten: aktuell Samstag, 13.04.2019 10:30
Datum Zeit Temp. A. Auen 2 Feuchte A. Luftdruck Regen Wind Richtung Richtung Sonnenschein T Regen Solar Taupunkt Windchill Windben Empfang
13.04.2019 10:30 5,9 C 0,0 C 49 % 1019,0 hPa 0,0 l/m 5,9 km/h (2 Bft) S 180 0 min 0 min 298 W/m -4,0 C 5,9 C 9,7 km/h (2 Bft) 96 %
13.04.2019 10:29 5,9 C 0,0 C 49 % 1019,0 hPa 0,0 l/m 12,4 km/h (3 Bft) S 180 0 min 0 min 302 W/m -4,0 C 1,6 C 17,7 km/h (3 Bft) 100 %
13.04.2019 10:25 5,9 C 0,0 C 50 % 1019,0 hPa 0,0 l/m 11,3 km/h (2 Bft) S 180 5 min 0 min 522 W/m -3,7 C 2,2 C 24,1 km/h (4 Bft) 100 %
13.04.2019 10:20 5,8 C 0,0 C 49 % 1019,0 hPa 0,0 l/m 8,0 km/h (2 Bft) S 180 5 min 0 min 418 W/m -4,1 C 4,4 C 19,3 km/h (3 Bft) 100 %
13.04.2019 10:15 5,7 C 0,0 C 50 % 1019,0 hPa 0,0 l/m 8,0 km/h (2 Bft) S 180 5 min 0 min 464 W/m -3,9 C 4,3 C 17,7 km/h (3 Bft) 96 %
13.04.2019 10:10 5,6 C 0,0 C 51 % 1019,0 hPa 0,0 l/m 11,3 km/h (2 Bft) S 180 5 min 0 min 488 W/m -3,7 C 1,9 C 20,9 km/h (4 Bft) 96 %
13.04.2019 10:05 5,5 C 0,0 C 51 % 1019,1 hPa 0,0 l/m 8,0 km/h (2 Bft) S 180 5 min 0 min 494 W/m -3,8 C 4,1 C 16,1 km/h (3 Bft) 97 %
13.04.2019 10:00 5,3 C 0,0 C 53 % 1019,1 hPa 0,0 l/m 8,0 km/h (2 Bft) S 180 5 min 0 min 479 W/m -3,5 C 3,9 C 16,1 km/h (3 Bft) 100 %
13.04.2019 09:55 5,2 C 0,0 C 54 % 1019,1 hPa 0,0 l/m 8,0 km/h (2 Bft) S 180 5 min 0 min 458 W/m -3,3 C 3,8 C 14,5 km/h (3 Bft) 100 %
13.04.2019 09:50 5,1 C 0,0 C 54 % 1019,1 hPa 0,0 l/m 9,7 km/h (2 Bft) S 180 5 min 0 min 450 W/m -3,4 C 2,4 C 19,3 km/h (3 Bft) 100 %
13.04.2019 09:45 4,9 C 0,0 C 55 % 1019,2 hPa 0,0 l/m 6,4 km/h (2 Bft) S 180 5 min 0 min 420 W/m -3,4 C 4,9 C 16,1 km/h (3 Bft) 100 %
13.04.2019 09:40 4,8 C 0,0 C 55 % 1019,2 hPa 0,0 l/m 8,0 km/h (2 Bft) S 180 5 min 0 min 413 W/m -3,5 C 3,4 C 16,1 km/h (3 Bft) 99 %
13.04.2019 09:35 4,6 C 0,0 C 57 % 1019,1 hPa 0,0 l/m 6,4 km/h (2 Bft) S 180 5 min 0 min 393 W/m -3,2 C 4,6 C 12,9 km/h (3 Bft) 100 %
13.04.2019 09:30 4,6 C 0,0 C 57 % 1019,1 hPa 0,0 l/m 8,0 km/h (2 Bft) S 180 5 min 0 min 385 W/m -3,2 C 3,2 C 12,9 km/h (3 Bft) 99 %
13.04.2019 09:25 4,4 C 0,0 C 57 % 1019,1 hPa 0,0 l/m 9,7 km/h (2 Bft) S 180 5 min 0 min 339 W/m -3,4 C 1,6 C 17,7 km/h (3 Bft) 97 %
13.04.2019 09:20 4,3 C 0,0 C 58 % 1019,0 hPa 0,0 l/m 6,4 km/h (2 Bft) S 180 5 min 0 min 330 W/m -3,2 C 4,3 C 14,5 km/h (3 Bft) 96 %
13.04.2019 09:15 4,2 C 0,0 C 59 % 1019,2 hPa 0,0 l/m 6,4 km/h (2 Bft) S 180 5 min 0 min 342 W/m -3,1 C 4,2 C 12,9 km/h (3 Bft) 98 %
13.04.2019 09:10 4,1 C 0,0 C 61 % 1019,1 hPa 0,0 l/m 3,2 km/h (1 Bft) S 180 5 min 0 min 342 W/m -2,7 C 4,1 C 9,7 km/h (2 Bft) 100 %
13.04.2019 09:05 4,1 C 0,0 C 60 % 1019,1 hPa 0,0 l/m 8,0 km/h (2 Bft) S 180 5 min 0 min 328 W/m -3,0 C 2,7 C 16,1 km/h (3 Bft) 99 %
13.04.2019 09:00 4,1 C 0,0 C 60 % 1019,2 hPa 0,0 l/m 8,0 km/h (2 Bft) S 180 5 min 0 min 293 W/m -3,0 C 2,7 C 14,5 km/h (3 Bft) 100 %
13.04.2019 08:55 4,1 C 0,0 C 60 % 1019,2 hPa 0,0 l/m 8,0 km/h (2 Bft) S 180 5 min 0 min 269 W/m -3,0 C 2,7 C 14,5 km/h (3 Bft) 100 %
13.04.2019 08:50 4,1 C 0,0 C 61 % 1019,4 hPa 0,0 l/m 6,4 km/h (2 Bft) S 180 5 min 0 min 240 W/m -2,7 C 4,1 C 12,9 km/h (3 Bft) 99 %
13.04.2019 08:45 4,1 C 0,0 C 62 % 1019,5 hPa 0,0 l/m 3,2 km/h (1 Bft) S 180 5 min 0 min 203 W/m -2,5 C 4,1 C 8,0 km/h (2 Bft) 100 %
13.04.2019 08:40 4,0 C 0,0 C 61 % 1019,4 hPa 0,0 l/m 6,4 km/h (2 Bft) S 180 5 min 0 min 219 W/m -2,8 C 4,0 C 12,9 km/h (3 Bft) 100 %
13.04.2019 08:35 3,9 C 0,0 C 62 % 1019,4 hPa 0,0 l/m 3,2 km/h (1 Bft) S 180 5 min 0 min 205 W/m -2,7 C 3,9 C 8,0 km/h (2 Bft) 98 %
13.04.2019 08:30 3,9 C 0,0 C 63 % 1019,3 hPa 0,0 l/m 1,6 km/h (1 Bft) S 180 5 min 0 min 203 W/m -2,5 C 3,9 C 6,4 km/h (2 Bft) 96 %
13.04.2019 08:25 3,8 C 0,0 C 63 % 1019,3 hPa 0,0 l/m 3,2 km/h (1 Bft) S 180 5 min 0 min 182 W/m -2,6 C 3,8 C 6,4 km/h (2 Bft) 98 %
13.04.2019 08:20 3,7 C 0,0 C 63 % 1019,3 hPa 0,0 l/m 3,2 km/h (1 Bft) S 180 5 min 0 min 174 W/m -2,7 C 3,7 C 6,4 km/h (2 Bft) 100 %
13.04.2019 08:15 3,7 C 0,0 C 63 % 1019,3 hPa 0,0 l/m 3,2 km/h (1 Bft) S 180 0 min 0 min 145 W/m -2,7 C 3,7 C 8,0 km/h (2 Bft) 100 %
13.04.2019 08:10 3,7 C 0,0 C 64 % 1019,2 hPa 0,0 l/m 4,8 km/h (1 Bft) S 180 0 min 0 min 133 W/m -2,5 C 3,7 C 8,0 km/h (2 Bft) 100 %
13.04.2019 08:05 3,6 C 0,0 C 65 % 1019,3 hPa 0,0 l/m 1,6 km/h (1 Bft) S 180 0 min 0 min 126 W/m -2,4 C 3,6 C 8,0 km/h (2 Bft) 99 %
13.04.2019 08:00 3,6 C 0,0 C 68 % 1019,2 hPa 0,0 l/m 0,0 km/h (0 Bft) S 180 0 min 0 min 110 W/m -1,7 C 3,6 C 1,6 km/h (1 Bft) 100 %
13.04.2019 07:55 3,5 C 0,0 C 66 % 1019,2 hPa 0,0 l/m 1,6 km/h (1 Bft) S 180 0 min 0 min 102 W/m -2,2 C 3,5 C 4,8 km/h (1 Bft) 100 %
13.04.2019 07:50 3,4 C 0,0 C 67 % 1019,3 hPa 0,0 l/m 1,6 km/h (1 Bft) S 180 0 min 0 min 98 W/m -2,1 C 3,4 C 4,8 km/h (1 Bft) 99 %
13.04.2019 07:45 3,3 C 0,0 C 66 % 1019,2 hPa 0,0 l/m 1,6 km/h (1 Bft) S 180 0 min 0 min 91 W/m -2,4 C 3,3 C 4,8 km/h (1 Bft) 99 %
13.04.2019 07:40 3,3 C 0,0 C 67 % 1019,1 hPa 0,0 l/m 1,6 km/h (1 Bft) S 180 0 min 0 min 80 W/m -2,2 C 3,3 C 4,8 km/h (1 Bft) 97 %
13.04.2019 07:35 3,3 C 0,0 C 68 % 1019,1 hPa 0,0 l/m 1,6 km/h (1 Bft) S 180 0 min 0 min 70 W/m -2,0 C 3,3 C 3,2 km/h (1 Bft) 97 %
13.04.2019 07:30 3,2 C 0,0 C 69 % 1019,1 hPa 0,0 l/m 0,0 km/h (0 Bft) S 180 0 min 0 min 63 W/m -1,9 C 3,2 C 1,6 km/h (1 Bft) 97 %
13.04.2019 07:25 3,2 C 0,0 C 68 % 1019,1 hPa 0,0 l/m 0,0 km/h (0 Bft) S 180 0 min 0 min 54 W/m -2,1 C 3,2 C 1,6 km/h (1 Bft) 100 %
13.04.2019 07:20 3,1 C 0,0 C 68 % 1019,1 hPa 0,0 l/m 0,0 km/h (0 Bft) S 180 0 min 0 min 44 W/m -2,2 C 3,1 C 1,6 km/h (1 Bft) 99 %
13.04.2019 07:15 3,1 C 0,0 C 68 % 1019,1 hPa 0,0 l/m 0,0 km/h (0 Bft) S 180 0 min 0 min 38 W/m -2,2 C 3,1 C 1,6 km/h (1 Bft) 100 %
13.04.2019 07:10 3,1 C 0,0 C 67 % 1019,0 hPa 0,0 l/m 0,0 km/h (0 Bft) S 180 0 min 0 min 31 W/m -2,4 C 3,1 C 1,6 km/h (1 Bft) 100 %
13.04.2019 07:05 3,1 C 0,0 C 67 % 1019,1 hPa 0,0 l/m 0,0 km/h (0 Bft) S 180 0 min 0 min 24 W/m -2,4 C 3,1 C 3,2 km/h (1 Bft) 100 %
13.04.2019 07:00 3,1 C 0,0 C 67 % 1019,2 hPa 0,0 l/m 0,0 km/h (0 Bft) S 180 0 min 0 min 21 W/m -2,4 C 3,1 C 3,2 km/h (1 Bft) 100 %
13.04.2019 06:55 3,1 C 0,0 C 66 % 1019,2 hPa 0,0 l/m 1,6 km/h (1 Bft) S 180 0 min 0 min 17 W/m -2,6 C 3,1 C 4,8 km/h (1 Bft) 100 %
13.04.2019 06:50 3,1 C 0,0 C 66 % 1019,2 hPa 0,0 l/m 3,2 km/h (1 Bft) S 180 0 min 0 min 14 W/m -2,6 C 3,1 C 4,8 km/h (1 Bft) 98 %
13.04.2019 06:45 3,1 C 0,0 C 66 % 1019,1 hPa 0,0 l/m 3,2 km/h (1 Bft) S 180 0 min 0 min 10 W/m -2,6 C 3,1 C 4,8 km/h (1 Bft) 97 %
13.04.2019 06:40 3,1 C 0,0 C 66 % 1019,0 hPa 0,0 l/m 0,0 km/h (0 Bft) S 180 0 min 0 min 7 W/m -2,6 C 3,1 C 3,2 km/h (1 Bft) 97 %
13.04.2019 06:35 3,1 C 0,0 C 66 % 1019,1 hPa 0,0 l/m 1,6 km/h (1 Bft) S 180 0 min 0 min 5 W/m -2,6 C 3,1 C 3,2 km/h (1 Bft) 100 %
13.04.2019 06:30 3,1 C 0,0 C 66 % 1019,0 hPa 0,0 l/m 1,6 km/h (1 Bft) S 180 0 min 0 min 3 W/m -2,6 C 3,1 C 4,8 km/h (1 Bft) 100 %
13.04.2019 06:25 3,1 C 0,0 C 66 % 1019,0 hPa 0,0 l/m 1,6 km/h (1 Bft) S 180 0 min 0 min 1 W/m -2,6 C 3,1 C 4,8 km/h (1 Bft) 100 %
13.04.2019 06:20 3,1 C 0,0 C 66 % 1019,2 hPa 0,0 l/m 1,6 km/h (1 Bft) S 180 0 min 0 min 0 W/m -2,6 C 3,1 C 4,8 km/h (1 Bft) 100 %
13.04.2019 06:15 3,1 C 0,0 C 66 % 1019,2 hPa 0,0 l/m 3,2 km/h (1 Bft) S 180 0 min 0 min 0 W/m -2,6 C 3,1 C 4,8 km/h (1 Bft) 100 %
13.04.2019 06:10 3,1 C 0,0 C 66 % 1019,2 hPa 0,0 l/m 3,2 km/h (1 Bft) S 180 0 min 0 min 0 W/m -2,6 C 3,1 C 6,4 km/h (2 Bft) 99 %
13.04.2019 06:05 3,1 C 0,0 C 67 % 1019,3 hPa 0,0 l/m 1,6 km/h (1 Bft) S 180 0 min 0 min 0 W/m -2,4 C 3,1 C 3,2 km/h (1 Bft) 100 %
13.04.2019 06:00 3,1 C 0,0 C 68 % 1019,3 hPa 0,0 l/m 0,0 km/h (0 Bft) S 180 0 min 0 min 0 W/m -2,2 C 3,1 C 3,2 km/h (1 Bft) 100 %
13.04.2019 05:55 3,1 C 0,0 C 68 % 1019,4 hPa 0,0 l/m 0,0 km/h (0 Bft) N 0 0 min 0 min 0 W/m -2,2 C 3,1 C 0,0 km/h (0 Bft) 97 %
13.04.2019 05:50 3,1 C 0,0 C 67 % 1019,3 hPa 0,0 l/m 0,0 km/h (0 Bft) N 0 0 min 0 min 0 W/m -2,4 C 3,1 C 0,0 km/h (0 Bft) 97 %
13.04.2019 05:45 3,2 C 0,0 C 66 % 1019,4 hPa 0,0 l/m 0,0 km/h (0 Bft) S 180 0 min 0 min 0 W/m -2,5 C 3,2 C 1,6 km/h (1 Bft) 99 %
13.04.2019 05:40 3,2 C 0,0 C 66 % 1019,4 hPa 0,0 l/m 1,6 km/h (1 Bft) S 180 0 min 0 min 0 W/m -2,5 C 3,2 C 3,2 km/h (1 Bft) 100 %
13.04.2019 05:35 3,2 C 0,0 C 66 % 1019,4 hPa 0,0 l/m 0,0 km/h (0 Bft) S 180 0 min 0 min 0 W/m -2,5 C 3,2 C 3,2 km/h (1 Bft) 100 %
_ Min-Zeit 07:05 11:00 18:05 13:55 - 01:50 - - - - - 10:20 10:29 03:00 18:35
Minimum _ 3,0 C 0,0 C 49 % 1018,9 hPa - 0,0 km/h (0 Bft) - - - - - -4,1 C 1,6 C 0,0 km/h (0 Bft) 96 %
_ Max-Zeit 13:40 11:00 07:30 00:00 11:00 14:00 - - 11:05 11:00 13:05 11:55 15:20 13:30 11:15
Maximum _ 7,9 C 0,0 C 69 % 1020,9 hPa 0,0 l/m 12,9 km/h
S (3 Bft)
- - 5 min 0 min 921 W/m -0,7 C 7,8 C 29,0 km/h
S (5 Bft)
100 %
Durchschnitt _ 5,3 C 0,0 C 58 % 1019,7 hPa #0,0 l/m 5,0 km/h (1 Bft) S - #2:10 h #0 min. 213 W/m -2,3 C 4,9 C 10,4 km/h (2 Bft) 99 %